Time,TemperatureF,DewpointF,PressureIn,WindDirection,WindDirectionDegrees,WindSpeedMPH,WindSpeedGustMPH,Humidity,HourlyPrecipIn,Conditions,Clouds,dailyrainin,SoftwareType,DateUTC
2013-01-31 07:00:00,18.9,7.7,30.31,SE,135,0.0,0.0,61,0.00,,---,0.00,VWS V14.00,2013-01-31 13:00:00,
2013-01-31 07:56:00,18.9,7.7,30.31,SE,135,0.0,0.0,61,0.00,,---,0.00,VWS V14.00,2013-01-31 13:56:00,
2013-01-31 08:01:00,19.7,8.4,30.31,SE,138,0.0,0.0,61,0.00,,---,0.00,VWS V14.00,2013-01-31 14:01:00,
2013-01-31 08:06:00,19.9,8.6,30.31,SE,138,0.0,0.0,61,0.00,,---,0.00,VWS V14.00,2013-01-31 14:06:00,
2013-01-31 08:11:00,20.5,9.6,30.31,SE,138,0.0,0.0,62,0.00,,---,0.00,VWS V14.00,2013-01-31 14:11:00,
2013-01-31 08:16:00,20.6,10.0,30.35,SE,138,0.0,0.0,63,0.00,,---,0.00,VWS V14.00,2013-01-31 14:16:00,
2013-01-31 08:17:00,20.6,10.0,30.35,SE,138,0.0,0.0,63,0.00,,---,0.00,VWS V14.00,2013-01-31 14:17:00,
2013-01-31 08:22:00,21.1,10.8,30.35,SE,138,0.0,0.0,64,0.00,,---,0.00,VWS V14.00,2013-01-31 14:22:00,
2013-01-31 08:27:00,22.1,11.4,30.35,SE,138,0.0,0.0,63,0.00,,---,0.00,VWS V14.00,2013-01-31 14:27:00,
2013-01-31 08:32:00,23.5,12.8,30.34,SE,138,0.0,0.0,63,0.00,,---,0.00,VWS V14.00,2013-01-31 14:32:00,
2013-01-31 08:37:00,25.0,14.2,30.34,SE,138,0.0,0.0,63,0.00,,---,0.00,VWS V14.00,2013-01-31 14:37:00,
2013-01-31 08:42:00,26.0,13.6,30.34,SE,138,0.0,0.0,59,0.00,,---,0.00,VWS V14.00,2013-01-31 14:42:00,
2013-01-31 08:47:00,26.9,13.7,30.32,SE,138,0.0,0.0,57,0.00,,---,0.00,VWS V14.00,2013-01-31 14:47:00,
2013-01-31 08:52:00,27.3,12.4,30.32,SE,138,0.0,0.0,53,0.00,,---,0.00,VWS V14.00,2013-01-31 14:52:00,
2013-01-31 08:54:00,27.6,13.1,30.32,SE,138,0.0,0.0,54,0.00,,---,0.00,VWS V14.00,2013-01-31 14:54:00,
2013-01-31 08:57:00,28.2,13.3,30.32,SE,138,0.0,0.0,53,0.00,,---,0.00,VWS V14.00,2013-01-31 14:57:00,
2013-01-31 08:59:00,28.5,13.1,30.31,SE,138,0.0,0.0,52,0.00,,---,0.00,VWS V14.00,2013-01-31 14:59:00,
2013-01-31 09:02:00,29.0,12.2,30.31,SE,138,0.0,0.0,49,0.00,,---,0.00,VWS V14.00,2013-01-31 15:02:00,
2013-01-31 09:03:00,29.1,12.3,30.31,SE,138,0.0,0.0,49,0.00,,---,0.00,VWS V14.00,2013-01-31 15:03:00,
2013-01-31 09:04:00,29.3,12.5,30.31,SE,138,0.0,0.0,49,0.00,,---,0.00,VWS V14.00,2013-01-31 15:04:00,
2013-01-31 09:07:00,29.7,13.8,30.31,SSE,151,0.0,0.0,51,0.00,,---,0.00,VWS V14.00,2013-01-31 15:07:00,
2013-01-31 09:08:00,29.7,13.8,30.31,SSE,151,0.0,0.0,51,0.00,,---,0.00,VWS V14.00,2013-01-31 15:08:00,
2013-01-31 09:10:00,30.0,13.6,30.31,SSE,151,0.0,0.0,50,0.00,,---,0.00,VWS V14.00,2013-01-31 15:10:00,
2013-01-31 09:12:00,30.3,13.0,30.31,SSE,151,0.0,0.0,48,0.00,,---,0.00,VWS V14.00,2013-01-31 15:12:00,
2013-01-31 09:13:00,30.4,13.1,30.31,SSE,151,0.0,0.0,48,0.00,,---,0.00,VWS V14.00,2013-01-31 15:13:00,
2013-01-31 09:15:00,30.7,12.4,30.26,SSE,151,0.0,0.0,46,0.00,,---,0.00,VWS V14.00,2013-01-31 15:15:00,
2013-01-31 09:17:00,31.3,13.4,30.26,SSE,151,0.0,0.0,47,0.00,,---,0.00,VWS V14.00,2013-01-31 15:17:00,
2013-01-31 09:18:00,31.5,13.6,30.26,SSE,151,0.0,0.0,47,0.00,,---,0.00,VWS V14.00,2013-01-31 15:18:00,
2013-01-31 09:20:00,31.8,12.9,30.26,SSE,151,0.0,0.0,45,0.00,,---,0.00,VWS V14.00,2013-01-31 15:20:00,
2013-01-31 09:23:00,32.2,13.3,30.26,SSE,151,0.0,0.0,45,0.00,,---,0.00,VWS V14.00,2013-01-31 15:23:00,
2013-01-31 09:25:00,32.7,14.2,30.26,SSE,151,0.0,0.0,46,0.00,,---,0.00,VWS V14.00,2013-01-31 15:25:00,
2013-01-31 09:28:00,33.4,14.4,30.26,SSE,151,0.0,0.0,45,0.00,,---,0.00,VWS V14.00,2013-01-31 15:28:00,
2013-01-31 09:30:00,33.8,13.7,30.26,SSE,151,0.0,0.0,43,0.00,,---,0.00,VWS V14.00,2013-01-31 15:30:00,
2013-01-31 09:33:00,34.4,13.7,30.26,SSE,151,0.0,0.0,42,0.00,,---,0.00,VWS V14.00,2013-01-31 15:33:00,
2013-01-31 09:34:00,34.6,13.3,30.26,SSE,151,0.0,0.0,41,0.00,,---,0.00,VWS V14.00,2013-01-31 15:34:00,
2013-01-31 09:35:00,34.9,14.1,30.26,SSE,151,0.0,0.0,42,0.00,,---,0.00,VWS V14.00,2013-01-31 15:35:00,
2013-01-31 09:38:00,35.8,15.0,30.26,SSE,151,0.0,0.0,42,0.00,,---,0.00,VWS V14.00,2013-01-31 15:38:00,
2013-01-31 09:39:00,36.2,15.3,30.26,SSE,151,0.0,0.0,42,0.00,,---,0.00,VWS V14.00,2013-01-31 15:39:00,
2013-01-31 09:40:00,36.6,15.7,30.26,SSE,151,0.0,0.0,42,0.00,,---,0.00,VWS V14.00,2013-01-31 15:40:00,
2013-01-31 09:43:00,37.3,15.2,30.26,SSE,151,0.0,0.0,40,0.00,,---,0.00,VWS V14.00,2013-01-31 15:43:00,
2013-01-31 09:44:00,37.5,15.4,30.26,SSE,151,0.0,0.0,40,0.00,,---,0.00,VWS V14.00,2013-01-31 15:44:00,
2013-01-31 09:45:00,37.6,15.5,30.24,SSE,151,0.0,0.0,40,0.00,,---,0.00,VWS V14.00,2013-01-31 15:45:00,
2013-01-31 09:48:00,38.2,15.4,30.24,SSE,151,0.0,0.0,39,0.00,,---,0.00,VWS V14.00,2013-01-31 15:48:00,
2013-01-31 09:49:00,38.3,15.5,30.24,SSE,151,0.0,0.0,39,0.00,,---,0.00,VWS V14.00,2013-01-31 15:49:00,
2013-01-31 09:50:00,38.8,16.6,30.24,SSE,151,0.0,0.0,40,0.00,,---,0.00,VWS V14.00,2013-01-31 15:50:00,
2013-01-31 09:54:00,40.2,17.2,30.24,SSE,151,0.0,0.0,39,0.00,,---,0.00,VWS V14.00,2013-01-31 15:54:00,
2013-01-31 09:55:00,40.9,15.4,30.24,SSE,151,0.0,0.0,35,0.00,,---,0.00,VWS V14.00,2013-01-31 15:55:00,
2013-01-31 09:59:00,43.1,11.4,30.21,SE,126,0.0,0.0,27,0.00,,---,0.00,VWS V14.00,2013-01-31 15:59:00,
2013-01-31 10:00:00,43.6,11.0,30.21,ESE,120,0.0,0.0,26,0.00,,---,0.00,VWS V14.00,2013-01-31 16:00:00,
2013-01-31 10:04:00,45.2,11.5,30.21,ESE,119,0.0,0.0,25,0.00,,---,0.00,VWS V14.00,2013-01-31 16:04:00,
2013-01-31 10:05:00,45.7,11.9,30.21,ESE,119,0.0,0.0,25,0.00,,---,0.00,VWS V14.00,2013-01-31 16:05:00,
2013-01-31 10:09:00,46.8,11.9,30.21,ESE,119,0.0,0.0,24,0.00,,---,0.00,VWS V14.00,2013-01-31 16:09:00,
2013-01-31 10:10:00,47.0,11.1,30.21,ESE,119,0.0,0.0,23,0.00,,---,0.00,VWS V14.00,2013-01-31 16:10:00,
2013-01-31 10:14:00,47.4,11.5,30.24,ESE,119,0.0,0.0,23,0.00,,---,0.00,VWS V14.00,2013-01-31 16:14:00,
2013-01-31 10:15:00,47.9,11.9,30.24,ESE,119,0.0,0.0,23,0.00,,---,0.00,VWS V14.00,2013-01-31 16:15:00,
2013-01-31 10:19:00,48.5,11.4,30.24,ESE,119,0.0,0.0,22,0.00,,---,0.00,VWS V14.00,2013-01-31 16:19:00,
2013-01-31 10:20:00,48.6,11.5,30.24,ESE,119,0.0,0.0,22,0.00,,---,0.00,VWS V14.00,2013-01-31 16:20:00,
2013-01-31 10:21:00,48.6,11.5,30.24,ESE,119,0.0,0.0,22,0.00,,---,0.00,VWS V14.00,2013-01-31 16:21:00,
2013-01-31 10:24:00,48.9,11.7,30.24,ESE,119,0.0,0.0,22,0.00,,---,0.00,VWS V14.00,2013-01-31 16:24:00,
2013-01-31 10:25:00,48.9,11.7,30.24,ESE,119,0.0,0.0,22,0.00,,---,0.00,VWS V14.00,2013-01-31 16:25:00,
2013-01-31 10:26:00,49.2,12.0,30.24,ESE,119,0.0,0.0,22,0.00,,---,0.00,VWS V14.00,2013-01-31 16:26:00,
2013-01-31 10:29:00,49.6,12.3,30.22,ESE,119,0.0,0.0,22,0.00,,---,0.00,VWS V14.00,2013-01-31 16:29:00,
2013-01-31 10:30:00,49.8,12.5,30.22,ESE,119,0.0,0.0,22,0.00,,---,0.00,VWS V14.00,2013-01-31 16:30:00,
2013-01-31 10:31:00,49.9,12.6,30.22,ESE,119,0.0,0.0,22,0.00,,---,0.00,VWS V14.00,2013-01-31 16:31:00,
2013-01-31 10:34:00,50.4,11.9,30.22,ESE,119,0.0,0.0,21,0.00,,---,0.00,VWS V14.00,2013-01-31 16:34:00,
2013-01-31 10:35:00,50.4,11.9,30.22,ESE,119,0.0,0.0,21,0.00,,---,0.00,VWS V14.00,2013-01-31 16:35:00,
2013-01-31 10:36:00,50.7,13.3,30.22,North,7,0.0,0.0,22,0.00,,---,0.00,VWS V14.00,2013-01-31 16:36:00,
2013-01-31 10:39:00,51.0,12.5,30.22,NW,312,0.0,11.0,21,0.00,,---,0.00,VWS V14.00,2013-01-31 16:39:00,
2013-01-31 10:40:00,51.0,12.5,30.22,NW,319,3.0,11.0,21,0.00,,---,0.00,VWS V14.00,2013-01-31 16:40:00,
2013-01-31 10:41:00,51.1,13.6,30.22,NW,320,0.0,11.0,22,0.00,,---,0.00,VWS V14.00,2013-01-31 16:41:00,
2013-01-31 10:45:00,51.4,13.9,30.20,WSW,257,0.0,11.0,22,0.00,,---,0.00,VWS V14.00,2013-01-31 16:45:00,
2013-01-31 10:46:00,51.6,14.0,30.20,West,270,2.0,11.0,22,0.00,,---,0.00,VWS V14.00,2013-01-31 16:46:00,
2013-01-31 10:50:00,51.9,14.3,30.20,WNW,298,0.0,11.0,22,0.00,,---,0.00,VWS V14.00,2013-01-31 16:50:00,
2013-01-31 10:51:00,52.2,14.5,30.20,WNW,294,7.0,11.0,22,0.00,,---,0.00,VWS V14.00,2013-01-31 16:51:00,
2013-01-31 10:55:00,52.5,13.7,30.20,NNW,329,1.0,11.0,21,0.00,,---,0.00,VWS V14.00,2013-01-31 16:55:00,
2013-01-31 10:56:00,52.5,12.6,30.20,NNW,347,1.0,11.0,20,0.00,,---,0.00,VWS V14.00,2013-01-31 16:56:00,
2013-01-31 11:00:00,52.5,12.6,30.19,NNW,329,5.0,7.0,20,0.00,,---,0.00,VWS V14.00,2013-01-31 17:00:00,
2013-01-31 11:01:00,52.5,12.6,30.19,North,356,7.0,7.0,20,0.00,,---,0.00,VWS V14.00,2013-01-31 17:01:00,
2013-01-31 11:05:00,53.2,13.2,30.19,NW,316,7.0,12.0,20,0.00,,---,0.00,VWS V14.00,2013-01-31 17:05:00,
2013-01-31 11:06:00,53.3,14.4,30.19,NNW,336,5.0,12.0,21,0.00,,---,0.00,VWS V14.00,2013-01-31 17:06:00,
2013-01-31 11:10:00,54.2,14.0,30.19,NW,306,7.0,12.0,20,0.00,,---,0.00,VWS V14.00,2013-01-31 17:10:00,
2013-01-31 11:11:00,54.4,13.0,30.19,NW,313,7.0,12.0,19,0.00,,---,0.00,VWS V14.00,2013-01-31 17:11:00,
2013-01-31 11:15:00,54.7,13.3,30.14,NNW,342,7.0,12.0,19,0.00,,---,0.00,VWS V14.00,2013-01-31 17:15:00,
2013-01-31 11:16:00,54.5,11.9,30.14,WNW,299,10.0,14.0,18,0.00,,---,0.00,VWS V14.00,2013-01-31 17:16:00,
2013-01-31 11:20:00,53.6,12.4,30.14,North,350,6.0,14.0,19,0.00,,---,0.00,VWS V14.00,2013-01-31 17:20:00,
2013-01-31 11:21:00,53.6,12.4,30.14,West,278,6.0,14.0,19,0.00,,---,0.00,VWS V14.00,2013-01-31 17:21:00,
2013-01-31 11:26:00,54.4,13.0,30.14,WNW,288,0.0,14.0,19,0.00,,---,0.00,VWS V14.00,2013-01-31 17:26:00,
2013-01-31 11:27:00,54.5,11.9,30.14,NW,315,0.0,14.0,18,0.00,,---,0.00,VWS V14.00,2013-01-31 17:27:00,
2013-01-31 11:31:00,54.8,10.8,30.14,WNW,287,6.0,8.0,17,0.00,,---,0.00,VWS V14.00,2013-01-31 17:31:00,
2013-01-31 11:32:00,54.7,10.8,30.14,West,260,0.0,8.0,17,0.00,,---,0.00,VWS V14.00,2013-01-31 17:32:00,
2013-01-31 11:36:00,55.0,12.3,30.14,WNW,301,0.0,10.0,18,0.00,,---,0.00,VWS V14.00,2013-01-31 17:36:00,
2013-01-31 11:37:00,55.0,13.5,30.14,NW,304,0.0,10.0,19,0.00,,---,0.00,VWS V14.00,2013-01-31 17:37:00,
2013-01-31 11:41:00,55.6,11.5,30.14,NW,313,0.0,10.0,17,0.00,,---,0.00,VWS V14.00,2013-01-31 17:41:00,
2013-01-31 11:42:00,55.9,13.0,30.14,North,350,0.0,10.0,18,0.00,,---,0.00,VWS V14.00,2013-01-31 17:42:00,
2013-01-31 11:46:00,55.6,11.5,30.13,NNW,329,2.0,11.0,17,0.00,,---,0.00,VWS V14.00,2013-01-31 17:46:00,
2013-01-31 11:47:00,55.6,11.5,30.13,NW,304,0.0,11.0,17,0.00,,---,0.00,VWS V14.00,2013-01-31 17:47:00,
2013-01-31 11:51:00,55.7,10.2,30.13,NW,316,7.0,11.0,16,0.00,,---,0.00,VWS V14.00,2013-01-31 17:51:00,
2013-01-31 11:52:00,55.9,10.4,30.13,NNW,329,0.0,11.0,16,0.00,,---,0.00,VWS V14.00,2013-01-31 17:52:00,
2013-01-31 11:56:00,56.0,11.8,30.13,WNW,292,7.0,11.0,17,0.00,,---,0.00,VWS V14.00,2013-01-31 17:56:00,
2013-01-31 11:57:00,56.0,10.5,30.13,NW,312,0.0,11.0,16,0.00,,---,0.00,VWS V14.00,2013-01-31 17:57:00,
2013-01-31 12:01:00,56.0,10.5,30.14,NW,313,7.0,8.0,16,0.00,,---,0.00,VWS V14.00,2013-01-31 18:01:00,
2013-01-31 12:02:00,56.0,10.5,30.14,NW,305,7.0,11.0,16,0.00,,---,0.00,VWS V14.00,2013-01-31 18:02:00,
2013-01-31 12:06:00,56.3,9.3,30.14,WNW,296,1.0,11.0,15,0.00,,---,0.00,VWS V14.00,2013-01-31 18:06:00,
2013-01-31 12:07:00,56.3,10.7,30.14,NW,306,0.0,11.0,16,0.00,,---,0.00,VWS V14.00,2013-01-31 18:07:00,
2013-01-31 12:08:00,56.3,10.7,30.14,NW,305,0.0,11.0,16,0.00,,---,0.00,VWS V14.00,2013-01-31 18:08:00,
2013-01-31 12:11:00,56.6,9.5,30.14,WNW,291,5.0,11.0,15,0.00,,---,0.00,VWS V14.00,2013-01-31 18:11:00,
2013-01-31 12:12:00,56.6,9.5,30.14,WNW,298,5.0,11.0,15,0.00,,---,0.00,VWS V14.00,2013-01-31 18:12:00,
2013-01-31 12:13:00,56.6,9.5,30.14,NW,306,6.0,11.0,15,0.00,,---,0.00,VWS V14.00,2013-01-31 18:13:00,
2013-01-31 12:16:00,56.7,8.1,30.14,NNW,328,6.0,11.0,14,0.00,,---,0.00,VWS V14.00,2013-01-31 18:16:00,
2013-01-31 12:17:00,56.9,8.2,30.14,WNW,299,7.0,11.0,14,0.00,,---,0.00,VWS V14.00,2013-01-31 18:17:00,
2013-01-31 12:18:00,56.9,8.2,30.14,NW,306,7.0,11.0,14,0.00,,---,0.00,VWS V14.00,2013-01-31 18:18:00,
2013-01-31 12:21:00,57.2,8.4,30.14,NW,309,5.0,11.0,14,0.00,,---,0.00,VWS V14.00,2013-01-31 18:21:00,
2013-01-31 12:23:00,57.3,8.5,30.14,NW,311,4.0,11.0,14,0.00,,---,0.00,VWS V14.00,2013-01-31 18:23:00,
2013-01-31 12:26:00,57.5,7.1,30.14,NNW,340,8.0,12.0,13,0.00,,---,0.00,VWS V14.00,2013-01-31 18:26:00,
2013-01-31 12:28:00,57.6,8.8,30.14,NNW,332,8.0,12.0,14,0.00,,---,0.00,VWS V14.00,2013-01-31 18:28:00,
2013-01-31 12:31:00,57.8,8.9,30.13,NW,312,6.0,10.0,14,0.00,,---,0.00,VWS V14.00,2013-01-31 18:31:00,
2013-01-31 12:33:00,57.6,8.8,30.13,WNW,292,6.0,10.0,14,0.00,,---,0.00,VWS V14.00,2013-01-31 18:33:00,
2013-01-31 12:37:00,57.6,8.8,30.13,NNW,337,2.0,10.0,14,0.00,,---,0.00,VWS V14.00,2013-01-31 18:37:00,
2013-01-31 12:38:00,57.3,8.5,30.13,NNW,342,11.0,13.0,14,0.00,,---,0.00,VWS V14.00,2013-01-31 18:38:00,
2013-01-31 12:42:00,58.0,7.4,30.13,NW,306,8.0,13.0,13,0.00,,---,0.00,VWS V14.00,2013-01-31 18:42:00,
2013-01-31 12:43:00,58.3,10.9,30.13,North,352,8.0,13.0,15,0.00,,---,0.00,VWS V14.00,2013-01-31 18:43:00,
2013-01-31 12:47:00,58.7,8.0,30.13,NW,308,0.0,13.0,13,0.00,,---,0.00,VWS V14.00,2013-01-31 18:47:00,
2013-01-31 12:48:00,58.4,6.0,30.13,WNW,301,0.0,13.0,12,0.00,,---,0.00,VWS V14.00,2013-01-31 18:48:00,
2013-01-31 12:52:00,57.6,8.8,30.13,West,278,0.0,13.0,14,0.00,,---,0.00,VWS V14.00,2013-01-31 18:52:00,
2013-01-31 12:53:00,57.3,6.9,30.13,WNW,296,6.0,13.0,13,0.00,,---,0.00,VWS V14.00,2013-01-31 18:53:00,
2013-01-31 12:54:00,57.5,7.1,30.13,WNW,292,0.0,13.0,13,0.00,,---,0.00,VWS V14.00,2013-01-31 18:54:00,
2013-01-31 12:57:00,57.0,6.7,30.13,NW,319,9.0,13.0,13,0.00,,---,0.00,VWS V14.00,2013-01-31 18:57:00,
2013-01-31 12:58:00,56.7,6.4,30.13,NNW,328,7.0,13.0,13,0.00,,---,0.00,VWS V14.00,2013-01-31 18:58:00,
2013-01-31 12:59:00,56.7,6.4,30.12,West,272,8.0,13.0,13,0.00,,---,0.00,VWS V14.00,2013-01-31 18:59:00,
2013-01-31 13:02:00,56.6,8.0,30.12,WNW,284,13.0,14.0,14,0.00,,---,0.00,VWS V14.00,2013-01-31 19:02:00,
2013-01-31 13:03:00,56.6,8.0,30.12,NW,308,10.0,14.0,14,0.00,,---,0.00,VWS V14.00,2013-01-31 19:03:00,
2013-01-31 13:04:00,56.6,8.0,30.12,NW,318,10.0,14.0,14,0.00,,---,0.00,VWS V14.00,2013-01-31 19:04:00,
2013-01-31 13:07:00,57.0,8.3,30.12,NW,312,7.0,14.0,14,0.00,,---,0.00,VWS V14.00,2013-01-31 19:07:00,
2013-01-31 13:08:00,57.3,6.9,30.12,NNW,346,10.0,14.0,13,0.00,,---,0.00,VWS V14.00,2013-01-31 19:08:00,
2013-01-31 13:09:00,57.2,6.8,30.12,NNW,343,10.0,14.0,13,0.00,,---,0.00,VWS V14.00,2013-01-31 19:09:00,
2013-01-31 13:13:00,57.3,8.5,30.12,NW,319,10.0,14.0,14,0.00,,---,0.00,VWS V14.00,2013-01-31 19:13:00,
2013-01-31 13:14:00,57.5,8.7,30.12,NW,323,4.0,14.0,14,0.00,,---,0.00,VWS V14.00,2013-01-31 19:14:00,
2013-01-31 13:18:00,57.5,5.3,30.12,NW,312,7.0,14.0,12,0.00,,---,0.00,VWS V14.00,2013-01-31 19:18:00,
2013-01-31 13:19:00,58.4,7.8,30.12,NW,322,8.0,14.0,13,0.00,,---,0.00,VWS V14.00,2013-01-31 19:19:00,
2013-01-31 13:23:00,58.6,6.2,30.12,WNW,287,7.0,17.0,12,0.00,,---,0.00,VWS V14.00,2013-01-31 19:23:00,
2013-01-31 13:24:00,58.4,6.0,30.12,North,349,8.0,17.0,12,0.00,,---,0.00,VWS V14.00,2013-01-31 19:24:00,
2013-01-31 13:28:00,58.1,7.5,30.12,West,280,6.0,17.0,13,0.00,,---,0.00,VWS V14.00,2013-01-31 19:28:00,
2013-01-31 13:29:00,58.0,9.1,30.11,NW,315,6.0,17.0,14,0.00,,---,0.00,VWS V14.00,2013-01-31 19:29:00,
2013-01-31 13:33:00,58.0,7.4,30.11,WNW,301,0.0,12.0,13,0.00,,---,0.00,VWS V14.00,2013-01-31 19:33:00,
2013-01-31 13:34:00,58.0,5.7,30.11,NW,311,0.0,12.0,12,0.00,,---,0.00,VWS V14.00,2013-01-31 19:34:00,
2013-01-31 13:38:00,57.6,5.4,30.11,NW,308,5.0,12.0,12,0.00,,---,0.00,VWS V14.00,2013-01-31 19:38:00,
2013-01-31 13:39:00,57.8,8.9,30.11,NNW,347,0.0,12.0,14,0.00,,---,0.00,VWS V14.00,2013-01-31 19:39:00,
2013-01-31 13:40:00,57.8,8.9,30.11,NW,311,0.0,12.0,14,0.00,,---,0.00,VWS V14.00,2013-01-31 19:40:00,
2013-01-31 13:43:00,57.8,8.9,30.11,WNW,296,5.0,12.0,14,0.00,,---,0.00,VWS V14.00,2013-01-31 19:43:00,
2013-01-31 13:44:00,57.8,8.9,30.10,NW,306,6.0,12.0,14,0.00,,---,0.00,VWS V14.00,2013-01-31 19:44:00,
2013-01-31 13:45:00,57.6,8.8,30.10,NW,308,3.0,12.0,14,0.00,,---,0.00,VWS V14.00,2013-01-31 19:45:00,
2013-01-31 13:48:00,57.6,7.1,30.10,NNW,337,4.0,12.0,13,0.00,,---,0.00,VWS V14.00,2013-01-31 19:48:00,
2013-01-31 13:49:00,57.6,7.1,30.10,North,354,7.0,12.0,13,0.00,,---,0.00,VWS V14.00,2013-01-31 19:49:00,
2013-01-31 13:50:00,57.6,7.1,30.10,NNW,346,4.0,12.0,13,0.00,,---,0.00,VWS V14.00,2013-01-31 19:50:00,
2013-01-31 13:54:00,58.1,3.9,30.10,NNW,337,0.0,12.0,11,0.00,,---,0.00,VWS V14.00,2013-01-31 19:54:00,
2013-01-31 13:55:00,58.0,5.7,30.10,North,359,3.0,12.0,12,0.00,,---,0.00,VWS V14.00,2013-01-31 19:55:00,
2013-01-31 13:59:00,57.6,5.4,30.09,NNW,347,3.0,12.0,12,0.00,,---,0.00,VWS V14.00,2013-01-31 19:59:00,
2013-01-31 14:00:00,57.6,7.1,30.09,North,356,0.0,0.0,13,0.00,,---,0.00,VWS V14.00,2013-01-31 20:00:00,
2013-01-31 14:04:00,57.8,5.5,30.09,NNW,344,6.0,10.0,12,0.00,,---,0.00,VWS V14.00,2013-01-31 20:04:00,
2013-01-31 14:05:00,58.0,7.4,30.09,North,359,3.0,10.0,13,0.00,,---,0.00,VWS V14.00,2013-01-31 20:05:00,
2013-01-31 14:09:00,58.6,4.3,30.09,North,352,6.0,10.0,11,0.00,,---,0.00,VWS V14.00,2013-01-31 20:09:00,
2013-01-31 14:10:00,58.6,6.2,30.09,NNW,333,6.0,10.0,12,0.00,,---,0.00,VWS V14.00,2013-01-31 20:10:00,
2013-01-31 14:14:00,58.9,8.2,30.07,North,357,6.0,10.0,13,0.00,,---,0.00,VWS V14.00,2013-01-31 20:14:00,
2013-01-31 14:15:00,59.0,8.2,30.07,NNE,20,5.0,10.0,13,0.00,,---,0.00,VWS V14.00,2013-01-31 20:15:00,
2013-01-31 14:19:00,59.2,6.6,30.07,North,359,3.0,11.0,12,0.00,,---,0.00,VWS V14.00,2013-01-31 20:19:00,
2013-01-31 14:20:00,59.3,6.7,30.07,North,359,6.0,11.0,12,0.00,,---,0.00,VWS V14.00,2013-01-31 20:20:00,
2013-01-31 14:24:00,59.6,6.9,30.07,NNE,23,0.0,11.0,12,0.00,,---,0.00,VWS V14.00,2013-01-31 20:24:00,
2013-01-31 14:25:00,59.6,5.1,30.07,NNE,23,0.0,11.0,11,0.00,,---,0.00,VWS V14.00,2013-01-31 20:25:00,
2013-01-31 14:29:00,60.5,5.8,30.06,NE,42,0.0,11.0,11,0.00,,---,0.00,VWS V14.00,2013-01-31 20:29:00,
2013-01-31 14:30:00,60.7,5.9,30.06,North,0,3.0,3.0,11,0.00,,---,0.00,VWS V14.00,2013-01-31 20:30:00,
2013-01-31 14:34:00,61.2,6.3,30.06,NNW,339,0.0,8.0,11,0.00,,---,0.00,VWS V14.00,2013-01-31 20:34:00,
2013-01-31 14:35:00,61.5,8.4,30.06,NNW,328,0.0,8.0,12,0.00,,---,0.00,VWS V14.00,2013-01-31 20:35:00,
2013-01-31 14:36:00,61.6,8.5,30.06,NW,319,0.0,8.0,12,0.00,,---,0.00,VWS V14.00,2013-01-31 20:36:00,
2013-01-31 14:39:00,62.0,8.8,30.06,NW,311,0.0,8.0,12,0.00,,---,0.00,VWS V14.00,2013-01-31 20:39:00,
2013-01-31 14:40:00,61.8,6.8,30.06,NW,311,0.0,8.0,11,0.00,,---,0.00,VWS V14.00,2013-01-31 20:40:00,
2013-01-31 14:41:00,61.6,8.5,30.06,NW,311,0.0,8.0,12,0.00,,---,0.00,VWS V14.00,2013-01-31 20:41:00,
2013-01-31 14:44:00,62.0,8.8,30.05,NNW,332,0.0,8.0,12,0.00,,---,0.00,VWS V14.00,2013-01-31 20:44:00,
2013-01-31 14:45:00,61.8,8.7,30.05,SSE,155,0.0,8.0,12,0.00,,---,0.00,VWS V14.00,2013-01-31 20:45:00,
2013-01-31 14:46:00,61.6,6.6,30.05,SSE,158,0.0,8.0,11,0.00,,---,0.00,VWS V14.00,2013-01-31 20:46:00,
2013-01-31 14:50:00,61.5,8.4,30.05,WNW,296,0.0,8.0,12,0.00,,---,0.00,VWS V14.00,2013-01-31 20:50:00,
2013-01-31 14:51:00,61.5,6.5,30.05,WNW,296,0.0,8.0,11,0.00,,---,0.00,VWS V14.00,2013-01-31 20:51:00,
2013-01-31 14:55:00,61.6,4.5,30.05,North,4,0.0,10.0,10,0.00,,---,0.00,VWS V14.00,2013-01-31 20:55:00,
2013-01-31 14:56:00,61.6,4.5,30.05,NNE,31,0.0,10.0,10,0.00,,---,0.00,VWS V14.00,2013-01-31 20:56:00,
2013-01-31 15:00:00,62.0,4.8,30.05,NNE,32,0.0,0.0,10,0.00,,---,0.00,VWS V14.00,2013-01-31 21:00:00,
2013-01-31 15:01:00,62.1,4.9,30.05,North,4,7.0,9.0,10,0.00,,---,0.00,VWS V14.00,2013-01-31 21:01:00,
2013-01-31 15:05:00,62.1,2.6,30.05,North,359,6.0,12.0,9,0.00,,---,0.00,VWS V14.00,2013-01-31 21:05:00,
2013-01-31 15:06:00,62.3,2.8,30.05,North,0,7.0,12.0,9,0.00,,---,0.00,VWS V14.00,2013-01-31 21:06:00,
2013-01-31 15:10:00,62.3,0.2,30.05,North,357,7.0,12.0,8,0.00,,---,0.00,VWS V14.00,2013-01-31 21:10:00,
2013-01-31 15:11:00,62.1,0.1,30.05,NNW,335,6.0,12.0,8,0.00,,---,0.00,VWS V14.00,2013-01-31 21:11:00,
2013-01-31 15:15:00,62.1,2.6,30.08,NNW,339,6.0,12.0,9,0.00,,---,0.00,VWS V14.00,2013-01-31 21:15:00,
2013-01-31 15:16:00,62.1,2.6,30.08,NNW,340,10.0,12.0,9,0.00,,---,0.00,VWS V14.00,2013-01-31 21:16:00,
2013-01-31 15:20:00,62.0,4.8,30.08,NNW,340,7.0,13.0,10,0.00,,---,0.00,VWS V14.00,2013-01-31 21:20:00,
2013-01-31 15:21:00,62.0,4.8,30.08,North,349,9.0,13.0,10,0.00,,---,0.00,VWS V14.00,2013-01-31 21:21:00,
2013-01-31 15:25:00,62.0,2.5,30.08,North,359,6.0,13.0,9,0.00,,---,0.00,VWS V14.00,2013-01-31 21:25:00,
2013-01-31 15:26:00,62.0,2.5,30.08,North,359,5.0,13.0,9,0.00,,---,0.00,VWS V14.00,2013-01-31 21:26:00,
2013-01-31 15:31:00,62.1,2.6,30.08,North,349,0.0,9.0,9,0.00,,---,0.00,VWS V14.00,2013-01-31 21:31:00,
2013-01-31 15:32:00,62.1,2.6,30.08,NW,320,6.0,9.0,9,0.00,,---,0.00,VWS V14.00,2013-01-31 21:32:00,
2013-01-31 15:36:00,62.1,2.6,30.08,NNW,330,2.0,10.0,9,0.00,,---,0.00,VWS V14.00,2013-01-31 21:36:00,
2013-01-31 15:37:00,62.1,2.6,30.08,NW,305,5.0,10.0,9,0.00,,---,0.00,VWS V14.00,2013-01-31 21:37:00,
2013-01-31 15:41:00,62.3,2.8,30.08,NW,316,0.0,10.0,9,0.00,,---,0.00,VWS V14.00,2013-01-31 21:41:00,
2013-01-31 15:42:00,62.3,2.8,30.08,North,359,0.0,10.0,9,0.00,,---,0.00,VWS V14.00,2013-01-31 21:42:00,
2013-01-31 15:46:00,62.6,0.5,30.07,North,359,0.0,10.0,8,0.00,,---,0.00,VWS V14.00,2013-01-31 21:46:00,
2013-01-31 15:47:00,62.7,0.6,30.07,North,356,0.0,10.0,8,0.00,,---,0.00,VWS V14.00,2013-01-31 21:47:00,
2013-01-31 15:51:00,62.3,2.8,30.07,North,353,0.0,10.0,9,0.00,,---,0.00,VWS V14.00,2013-01-31 21:51:00,
2013-01-31 15:52:00,62.3,2.8,30.07,North,353,0.0,10.0,9,0.00,,---,0.00,VWS V14.00,2013-01-31 21:52:00,
2013-01-31 15:56:00,62.1,0.1,30.07,North,356,0.0,10.0,8,0.00,,---,0.00,VWS V14.00,2013-01-31 21:56:00,
2013-01-31 15:57:00,62.1,0.1,30.07,North,359,0.0,10.0,8,0.00,,---,0.00,VWS V14.00,2013-01-31 21:57:00,
2013-01-31 16:01:00,61.8,-0.1,30.08,North,354,0.0,0.0,8,0.00,,---,0.00,VWS V14.00,2013-01-31 22:01:00,
2013-01-31 16:02:00,61.8,-0.1,30.08,North,357,0.0,0.0,8,0.00,,---,0.00,VWS V14.00,2013-01-31 22:02:00,
2013-01-31 16:06:00,61.8,2.4,30.08,North,359,0.0,0.0,9,0.00,,---,0.00,VWS V14.00,2013-01-31 22:06:00,
2013-01-31 16:07:00,61.8,-0.1,30.08,NNW,344,0.0,0.0,8,0.00,,---,0.00,VWS V14.00,2013-01-31 22:07:00,
2013-01-31 16:12:00,61.6,12.0,30.08,North,7,0.0,0.0,14,0.00,,---,0.00,VWS V14.00,2013-01-31 22:12:00,
2013-01-31 16:13:00,61.3,11.7,30.08,NNE,14,0.0,0.0,14,0.00,,---,0.00,VWS V14.00,2013-01-31 22:13:00,
2013-01-31 16:17:00,60.2,10.9,30.08,NE,35,0.0,9.0,14,0.00,,---,0.00,VWS V14.00,2013-01-31 22:17:00,
2013-01-31 16:18:00,59.9,13.6,30.08,NNE,32,10.0,10.0,16,0.00,,---,0.00,VWS V14.00,2013-01-31 22:18:00,
2013-01-31 16:22:00,59.3,13.1,30.08,ENE,59,0.0,10.0,16,0.00,,---,0.00,VWS V14.00,2013-01-31 22:22:00,
2013-01-31 16:23:00,59.0,12.9,30.08,NE,56,6.0,10.0,16,0.00,,---,0.00,VWS V14.00,2013-01-31 22:23:00,
2013-01-31 16:27:00,58.6,12.6,30.08,NE,47,0.0,11.0,16,0.00,,---,0.00,VWS V14.00,2013-01-31 22:27:00,
2013-01-31 16:28:00,58.6,12.6,30.08,NE,51,6.0,11.0,16,0.00,,---,0.00,VWS V14.00,2013-01-31 22:28:00,
2013-01-31 16:32:00,58.6,12.6,30.10,NE,45,0.0,0.0,16,0.00,,---,0.00,VWS V14.00,2013-01-31 22:32:00,
2013-01-31 16:33:00,58.7,12.6,30.10,NE,37,0.0,0.0,16,0.00,,---,0.00,VWS V14.00,2013-01-31 22:33:00,
2013-01-31 16:34:00,58.7,12.6,30.10,NE,45,0.0,0.0,16,0.00,,---,0.00,VWS V14.00,2013-01-31 22:34:00,
2013-01-31 16:37:00,58.7,12.6,30.10,NE,55,7.0,7.0,16,0.00,,---,0.00,VWS V14.00,2013-01-31 22:37:00,
2013-01-31 16:38:00,58.7,12.6,30.10,NE,44,1.0,7.0,16,0.00,,---,0.00,VWS V14.00,2013-01-31 22:38:00,
2013-01-31 16:39:00,58.7,12.6,30.10,ENE,61,0.0,7.0,16,0.00,,---,0.00,VWS V14.00,2013-01-31 22:39:00,
2013-01-31 16:42:00,58.7,14.0,30.10,NNE,28,5.0,9.0,17,0.00,,---,0.00,VWS V14.00,2013-01-31 22:42:00,
2013-01-31 16:43:00,58.7,14.0,30.10,NNE,28,5.0,9.0,17,0.00,,---,0.00,VWS V14.00,2013-01-31 22:43:00,
2013-01-31 16:44:00,58.7,12.6,30.10,NNE,25,4.0,9.0,16,0.00,,---,0.00,VWS V14.00,2013-01-31 22:44:00,
2013-01-31 16:48:00,58.7,12.6,30.10,NNE,20,7.0,9.0,16,0.00,,---,0.00,VWS V14.00,2013-01-31 22:48:00,
2013-01-31 16:49:00,58.6,13.9,30.10,NNE,16,10.0,13.0,17,0.00,,---,0.00,VWS V14.00,2013-01-31 22:49:00,
2013-01-31 16:53:00,58.6,13.9,30.10,NNE,14,7.0,13.0,17,0.00,,---,0.00,VWS V14.00,2013-01-31 22:53:00,
2013-01-31 16:54:00,58.6,12.6,30.10,North,4,4.0,13.0,16,0.00,,---,0.00,VWS V14.00,2013-01-31 22:54:00,
2013-01-31 16:58:00,58.0,12.1,30.10,NE,40,7.0,13.0,16,0.00,,---,0.00,VWS V14.00,2013-01-31 22:58:00,
2013-01-31 16:59:00,57.8,11.9,30.12,NNE,17,4.0,13.0,16,0.00,,---,0.00,VWS V14.00,2013-01-31 22:59:00,
2013-01-31 17:03:00,57.6,11.8,30.12,NNE,17,10.0,10.0,16,0.00,,---,0.00,VWS V14.00,2013-01-31 23:03:00,
2013-01-31 17:04:00,57.5,11.7,30.12,North,0,5.0,10.0,16,0.00,,---,0.00,VWS V14.00,2013-01-31 23:04:00,
2013-01-31 17:08:00,56.6,13.6,30.12,North,357,5.0,11.0,18,0.00,,---,0.00,VWS V14.00,2013-01-31 23:08:00,
2013-01-31 17:09:00,56.5,13.5,30.12,NNW,342,3.0,11.0,18,0.00,,---,0.00,VWS V14.00,2013-01-31 23:09:00,
2013-01-31 17:13:00,55.7,12.9,30.12,North,356,5.0,11.0,18,0.00,,---,0.00,VWS V14.00,2013-01-31 23:13:00,
2013-01-31 17:14:00,55.6,12.8,30.12,NW,326,3.0,11.0,18,0.00,,---,0.00,VWS V14.00,2013-01-31 23:14:00,
2013-01-31 17:18:00,55.1,13.6,30.16,North,6,8.0,12.0,19,0.00,,---,0.00,VWS V14.00,2013-01-31 23:18:00,
2013-01-31 17:19:00,55.0,13.5,30.16,North,356,5.0,12.0,19,0.00,,---,0.00,VWS V14.00,2013-01-31 23:19:00,
2013-01-31 17:23:00,54.8,13.4,30.16,NNW,347,6.0,12.0,19,0.00,,---,0.00,VWS V14.00,2013-01-31 23:23:00,
2013-01-31 17:24:00,54.8,13.4,30.16,North,349,6.0,12.0,19,0.00,,---,0.00,VWS V14.00,2013-01-31 23:24:00,
2013-01-31 17:29:00,54.5,13.1,30.16,NNW,346,1.0,12.0,19,0.00,,---,0.00,VWS V14.00,2013-01-31 23:29:00,
2013-01-31 17:34:00,54.4,13.0,30.16,NNW,340,6.0,8.0,19,0.00,,---,0.00,VWS V14.00,2013-01-31 23:34:00,
2013-01-31 17:35:00,54.4,14.2,30.16,NNW,336,9.0,10.0,20,0.00,,---,0.00,VWS V14.00,2013-01-31 23:35:00,
2013-01-31 17:39:00,54.2,14.0,30.16,NNW,333,5.0,10.0,20,0.00,,---,0.00,VWS V14.00,2013-01-31 23:39:00,
2013-01-31 17:40:00,54.2,14.0,30.16,NNW,344,5.0,10.0,20,0.00,,---,0.00,VWS V14.00,2013-01-31 23:40:00,
2013-01-31 17:44:00,54.2,11.6,30.18,NNW,342,6.0,10.0,18,0.00,,---,0.00,VWS V14.00,2013-01-31 23:44:00,
2013-01-31 17:45:00,54.1,12.8,30.18,NNW,347,5.0,10.0,19,0.00,,---,0.00,VWS V14.00,2013-01-31 23:45:00,
2013-01-31 17:49:00,53.9,11.4,30.18,North,352,3.0,10.0,18,0.00,,---,0.00,VWS V14.00,2013-01-31 23:49:00,
2013-01-31 17:50:00,53.8,13.7,30.18,North,352,0.0,10.0,20,0.00,,---,0.00,VWS V14.00,2013-01-31 23:50:00,
2013-01-31 17:54:00,53.6,13.5,30.18,North,352,0.0,10.0,20,0.00,,---,0.00,VWS V14.00,2013-01-31 23:54:00,
2013-01-31 17:55:00,53.6,13.5,30.18,North,354,0.0,10.0,20,0.00,,---,0.00,VWS V14.00,2013-01-31 23:55:00,
2013-01-31 17:59:00,53.5,13.4,30.18,North,354,0.0,10.0,20,0.00,,---,0.00,VWS V14.00,2013-01-31 23:59:00,
2013-01-31 18:00:00,53.3,13.3,30.18,North,354,0.0,10.0,20,0.00,,---,0.00,VWS V14.00,2013-02-01 00:00:00,
2013-01-31 18:04:00,52.9,12.9,30.18,North,357,0.0,0.0,20,0.00,,---,0.00,VWS V14.00,2013-02-01 00:04:00,
2013-01-31 18:05:00,52.8,14.0,30.18,North,357,0.0,0.0,21,0.00,,---,0.00,VWS V14.00,2013-02-01 00:05:00,
2013-01-31 18:09:00,52.5,13.7,30.18,North,357,0.0,0.0,21,0.00,,---,0.00,VWS V14.00,2013-02-01 00:09:00,
2013-01-31 18:10:00,52.5,13.7,30.18,North,357,0.0,0.0,21,0.00,,---,0.00,VWS V14.00,2013-02-01 00:10:00,
2013-01-31 18:14:00,52.0,13.3,30.21,North,359,0.0,0.0,21,0.00,,---,0.00,VWS V14.00,2013-02-01 00:14:00,
2013-01-31 18:15:00,52.0,13.3,30.21,North,359,0.0,0.0,21,0.00,,---,0.00,VWS V14.00,2013-02-01 00:15:00,
2013-01-31 18:16:00,51.9,13.2,30.21,North,359,0.0,0.0,21,0.00,,---,0.00,VWS V14.00,2013-02-01 00:16:00,
2013-01-31 18:19:00,51.6,13.0,30.21,North,359,0.0,0.0,21,0.00,,---,0.00,VWS V14.00,2013-02-01 00:19:00,
2013-01-31 18:20:00,51.6,13.0,30.21,North,359,0.0,0.0,21,0.00,,---,0.00,VWS V14.00,2013-02-01 00:20:00,
2013-01-31 18:21:00,51.4,12.8,30.21,North,359,0.0,0.0,21,0.00,,---,0.00,VWS V14.00,2013-02-01 00:21:00,
2013-01-31 18:24:00,51.3,13.8,30.21,North,359,0.0,0.0,22,0.00,,---,0.00,VWS V14.00,2013-02-01 00:24:00,
2013-01-31 18:25:00,51.1,13.6,30.21,North,359,0.0,0.0,22,0.00,,---,0.00,VWS V14.00,2013-02-01 00:25:00,
2013-01-31 18:26:00,51.1,13.6,30.21,North,359,0.0,0.0,22,0.00,,---,0.00,VWS V14.00,2013-02-01 00:26:00,
2013-01-31 18:29:00,51.0,13.5,30.22,North,359,0.0,0.0,22,0.00,,---,0.00,VWS V14.00,2013-02-01 00:29:00,
2013-01-31 18:30:00,51.0,13.5,30.22,North,359,0.0,0.0,22,0.00,,---,0.00,VWS V14.00,2013-02-01 00:30:00,
2013-01-31 18:31:00,51.0,13.5,30.22,North,359,0.0,0.0,22,0.00,,---,0.00,VWS V14.00,2013-02-01 00:31:00,
2013-01-31 18:34:00,50.5,13.1,30.22,North,359,0.0,0.0,22,0.00,,---,0.00,VWS V14.00,2013-02-01 00:34:00,
2013-01-31 18:35:00,50.4,14.0,30.22,North,359,0.0,0.0,23,0.00,,---,0.00,VWS V14.00,2013-02-01 00:35:00,
2013-01-31 18:36:00,50.4,14.0,30.22,North,359,0.0,0.0,23,0.00,,---,0.00,VWS V14.00,2013-02-01 00:36:00,
2013-01-31 18:39:00,48.2,13.1,30.22,North,359,0.0,0.0,24,0.00,,---,0.00,VWS V14.00,2013-02-01 00:39:00,
2013-01-31 18:40:00,47.9,12.9,30.22,North,359,0.0,0.0,24,0.00,,---,0.00,VWS V14.00,2013-02-01 00:40:00,
2013-01-31 18:41:00,47.9,13.8,30.22,North,359,0.0,0.0,25,0.00,,---,0.00,VWS V14.00,2013-02-01 00:41:00,
2013-01-31 18:44:00,47.0,13.0,30.24,North,359,0.0,0.0,25,0.00,,---,0.00,VWS V14.00,2013-02-01 00:44:00,
2013-01-31 18:45:00,46.8,12.9,30.24,North,359,0.0,0.0,25,0.00,,---,0.00,VWS V14.00,2013-02-01 00:45:00,
2013-01-31 18:46:00,46.8,12.9,30.24,North,359,0.0,0.0,25,0.00,,---,0.00,VWS V14.00,2013-02-01 00:46:00,
2013-01-31 18:50:00,46.7,12.8,30.24,North,359,0.0,0.0,25,0.00,,---,0.00,VWS V14.00,2013-02-01 00:50:00,
2013-01-31 18:51:00,46.5,13.5,30.24,North,359,0.0,0.0,26,0.00,,---,0.00,VWS V14.00,2013-02-01 00:51:00,
2013-01-31 18:55:00,45.8,12.9,30.24,North,359,0.0,0.0,26,0.00,,---,0.00,VWS V14.00,2013-02-01 00:55:00,
2013-01-31 18:56:00,45.8,12.9,30.24,North,359,0.0,0.0,26,0.00,,---,0.00,VWS V14.00,2013-02-01 00:56:00,
2013-01-31 18:57:00,45.7,12.8,30.24,North,359,0.0,0.0,26,0.00,,---,0.00,VWS V14.00,2013-02-01 00:57:00,
2013-01-31 19:00:00,45.4,12.5,30.26,North,359,0.0,0.0,26,0.00,,---,0.00,VWS V14.00,2013-02-01 01:00:00,
2013-01-31 19:01:00,45.2,12.4,30.26,North,359,0.0,0.0,26,0.00,,---,0.00,VWS V14.00,2013-02-01 01:01:00,
2013-01-31 19:02:00,45.2,12.4,30.26,North,359,0.0,0.0,26,0.00,,---,0.00,VWS V14.00,2013-02-01 01:02:00,
2013-01-31 19:05:00,44.8,12.9,30.26,North,359,0.0,0.0,27,0.00,,---,0.00,VWS V14.00,2013-02-01 01:05:00,
2013-01-31 19:06:00,44.8,12.9,30.26,North,359,0.0,0.0,27,0.00,,---,0.00,VWS V14.00,2013-02-01 01:06:00,
2013-01-31 19:07:00,44.8,12.9,30.26,North,359,0.0,0.0,27,0.00,,---,0.00,VWS V14.00,2013-02-01 01:07:00,
2013-01-31 19:10:00,44.6,12.7,30.26,North,359,0.0,0.0,27,0.00,,---,0.00,VWS V14.00,2013-02-01 01:10:00,
2013-01-31 19:11:00,44.6,12.7,30.26,North,359,0.0,0.0,27,0.00,,---,0.00,VWS V14.00,2013-02-01 01:11:00,
2013-01-31 19:12:00,44.6,12.7,30.26,North,359,0.0,0.0,27,0.00,,---,0.00,VWS V14.00,2013-02-01 01:12:00,
2013-01-31 19:15:00,44.5,12.6,30.27,North,359,0.0,0.0,27,0.00,,---,0.00,VWS V14.00,2013-02-01 01:15:00,
2013-01-31 19:16:00,44.5,12.6,30.27,North,359,0.0,0.0,27,0.00,,---,0.00,VWS V14.00,2013-02-01 01:16:00,
2013-01-31 19:17:00,44.3,13.3,30.27,North,359,0.0,0.0,28,0.00,,---,0.00,VWS V14.00,2013-02-01 01:17:00,
2013-01-31 19:20:00,44.3,12.4,30.27,North,359,0.0,0.0,27,0.00,,---,0.00,VWS V14.00,2013-02-01 01:20:00,
2013-01-31 19:21:00,44.3,12.4,30.27,North,359,0.0,0.0,27,0.00,,---,0.00,VWS V14.00,2013-02-01 01:21:00,
2013-01-31 19:22:00,44.3,12.4,30.27,North,359,0.0,0.0,27,0.00,,---,0.00,VWS V14.00,2013-02-01 01:22:00,
2013-01-31 19:25:00,44.1,12.3,30.27,North,359,0.0,0.0,27,0.00,,---,0.00,VWS V14.00,2013-02-01 01:25:00,
2013-01-31 19:26:00,44.1,12.3,30.27,North,359,0.0,0.0,27,0.00,,---,0.00,VWS V14.00,2013-02-01 01:26:00,
2013-01-31 19:27:00,43.9,12.1,30.27,North,359,0.0,0.0,27,0.00,,---,0.00,VWS V14.00,2013-02-01 01:27:00,
2013-01-31 19:28:00,43.8,12.0,30.27,North,359,0.0,0.0,27,0.00,,---,0.00,VWS V14.00,2013-02-01 01:28:00,
2013-01-31 19:30:00,43.6,11.8,30.27,North,359,0.0,0.0,27,0.00,,---,0.00,VWS V14.00,2013-02-01 01:30:00,
2013-01-31 19:32:00,43.5,11.8,30.27,North,359,0.0,0.0,27,0.00,,---,0.00,VWS V14.00,2013-02-01 01:32:00,
2013-01-31 19:33:00,43.2,13.1,30.27,North,359,0.0,0.0,29,0.00,,---,0.00,VWS V14.00,2013-02-01 01:33:00,
2013-01-31 19:35:00,43.1,13.0,30.27,North,359,0.0,0.0,29,0.00,,---,0.00,VWS V14.00,2013-02-01 01:35:00,
2013-01-31 19:37:00,42.9,12.9,30.27,North,359,0.0,0.0,29,0.00,,---,0.00,VWS V14.00,2013-02-01 01:37:00,
2013-01-31 19:38:00,42.9,13.6,30.27,North,359,0.0,0.0,30,0.00,,---,0.00,VWS V14.00,2013-02-01 01:38:00,
2013-01-31 19:41:00,42.8,13.5,30.27,North,359,0.0,0.0,30,0.00,,---,0.00,VWS V14.00,2013-02-01 01:41:00,
2013-01-31 19:42:00,42.6,13.4,30.27,North,359,0.0,0.0,30,0.00,,---,0.00,VWS V14.00,2013-02-01 01:42:00,
2013-01-31 19:43:00,42.6,13.4,30.27,North,359,0.0,0.0,30,0.00,,---,0.00,VWS V14.00,2013-02-01 01:43:00,
2013-01-31 19:46:00,42.5,12.5,30.29,North,359,0.0,0.0,29,0.00,,---,0.00,VWS V14.00,2013-02-01 01:46:00,
2013-01-31 19:47:00,42.3,12.3,30.29,North,359,0.0,0.0,29,0.00,,---,0.00,VWS V14.00,2013-02-01 01:47:00,
2013-01-31 19:48:00,42.3,12.3,30.29,North,359,0.0,0.0,29,0.00,,---,0.00,VWS V14.00,2013-02-01 01:48:00,
2013-01-31 19:51:00,42.2,12.2,30.29,North,359,0.0,0.0,29,0.00,,---,0.00,VWS V14.00,2013-02-01 01:51:00,
2013-01-31 19:52:00,42.1,12.9,30.29,North,359,0.0,0.0,30,0.00,,---,0.00,VWS V14.00,2013-02-01 01:52:00,
2013-01-31 19:53:00,42.1,13.7,30.29,North,359,0.0,0.0,31,0.00,,---,0.00,VWS V14.00,2013-02-01 01:53:00,
2013-01-31 19:56:00,41.8,14.1,30.29,North,359,0.0,0.0,32,0.00,,---,0.00,VWS V14.00,2013-02-01 01:56:00,
2013-01-31 19:57:00,41.6,13.9,30.29,North,359,0.0,0.0,32,0.00,,---,0.00,VWS V14.00,2013-02-01 01:57:00,
2013-01-31 19:58:00,41.5,13.9,30.29,North,359,0.0,0.0,32,0.00,,---,0.00,VWS V14.00,2013-02-01 01:58:00,
2013-01-31 20:01:00,41.3,13.7,30.30,North,359,0.0,0.0,32,0.00,,---,0.00,VWS V14.00,2013-02-01 02:01:00,
2013-01-31 20:02:00,41.1,13.5,30.30,North,359,0.0,0.0,32,0.00,,---,0.00,VWS V14.00,2013-02-01 02:02:00,
2013-01-31 20:03:00,41.1,13.5,30.30,North,359,0.0,0.0,32,0.00,,---,0.00,VWS V14.00,2013-02-01 02:03:00,
2013-01-31 20:06:00,40.8,13.9,30.30,North,359,0.0,0.0,33,0.00,,---,0.00,VWS V14.00,2013-02-01 02:06:00,
2013-01-31 20:07:00,40.6,14.4,30.30,North,359,0.0,0.0,34,0.00,,---,0.00,VWS V14.00,2013-02-01 02:07:00,
2013-01-31 20:08:00,40.6,14.4,30.30,North,359,0.0,0.0,34,0.00,,---,0.00,VWS V14.00,2013-02-01 02:08:00,
2013-01-31 20:11:00,40.5,15.0,30.30,North,359,0.0,0.0,35,0.00,,---,0.00,VWS V14.00,2013-02-01 02:11:00,
2013-01-31 20:13:00,40.3,14.2,30.30,North,359,0.0,0.0,34,0.00,,---,0.00,VWS V14.00,2013-02-01 02:13:00,
2013-01-31 20:16:00,40.2,14.1,30.26,North,359,0.0,0.0,34,0.00,,---,0.00,VWS V14.00,2013-02-01 02:16:00,
2013-01-31 20:18:00,40.2,14.1,30.26,North,359,0.0,0.0,34,0.00,,---,0.00,VWS V14.00,2013-02-01 02:18:00,
2013-01-31 20:21:00,40.1,14.0,30.26,North,359,0.0,0.0,34,0.00,,---,0.00,VWS V14.00,2013-02-01 02:21:00,
2013-01-31 20:23:00,39.9,13.8,30.26,North,359,0.0,0.0,34,0.00,,---,0.00,VWS V14.00,2013-02-01 02:23:00,
2013-01-31 20:26:00,39.2,13.2,30.26,North,359,0.0,0.0,34,0.00,,---,0.00,VWS V14.00,2013-02-01 02:26:00,
2013-01-31 20:28:00,39.1,13.1,30.26,North,359,0.0,0.0,34,0.00,,---,0.00,VWS V14.00,2013-02-01 02:28:00,
2013-01-31 20:31:00,39.1,14.4,30.28,North,359,0.0,0.0,36,0.00,,---,0.00,VWS V14.00,2013-02-01 02:31:00,
2013-01-31 20:33:00,38.9,14.2,30.28,North,359,0.0,0.0,36,0.00,,---,0.00,VWS V14.00,2013-02-01 02:33:00,
2013-01-31 20:34:00,38.9,14.2,30.28,North,359,0.0,0.0,36,0.00,,---,0.00,VWS V14.00,2013-02-01 02:34:00,
2013-01-31 20:36:00,38.6,14.0,30.28,North,359,0.0,0.0,36,0.00,,---,0.00,VWS V14.00,2013-02-01 02:36:00,
2013-01-31 20:38:00,38.5,14.5,30.28,North,359,0.0,0.0,37,0.00,,---,0.00,VWS V14.00,2013-02-01 02:38:00,
2013-01-31 20:39:00,38.3,14.3,30.28,North,359,0.0,0.0,37,0.00,,---,0.00,VWS V14.00,2013-02-01 02:39:00,
2013-01-31 20:42:00,38.3,14.3,30.28,North,359,0.0,0.0,37,0.00,,---,0.00,VWS V14.00,2013-02-01 02:42:00,
2013-01-31 20:43:00,38.2,14.8,30.28,North,359,0.0,0.0,38,0.00,,---,0.00,VWS V14.00,2013-02-01 02:43:00,
2013-01-31 20:44:00,38.2,14.8,30.30,North,359,0.0,0.0,38,0.00,,---,0.00,VWS V14.00,2013-02-01 02:44:00,
2013-01-31 20:47:00,38.0,14.7,30.30,North,359,0.0,0.0,38,0.00,,---,0.00,VWS V14.00,2013-02-01 02:47:00,
2013-01-31 20:48:00,37.9,14.6,30.30,North,359,0.0,0.0,38,0.00,,---,0.00,VWS V14.00,2013-02-01 02:48:00,
2013-01-31 20:49:00,37.9,14.6,30.30,North,359,0.0,0.0,38,0.00,,---,0.00,VWS V14.00,2013-02-01 02:49:00,
2013-01-31 20:52:00,37.6,14.3,30.30,North,359,0.0,0.0,38,0.00,,---,0.00,VWS V14.00,2013-02-01 02:52:00,
2013-01-31 20:53:00,37.5,15.4,30.30,North,359,0.0,0.0,40,0.00,,---,0.00,VWS V14.00,2013-02-01 02:53:00,
2013-01-31 20:54:00,37.5,15.4,30.30,North,359,0.0,0.0,40,0.00,,---,0.00,VWS V14.00,2013-02-01 02:54:00,
2013-01-31 20:57:00,37.2,15.7,30.30,North,359,0.0,0.0,41,0.00,,---,0.00,VWS V14.00,2013-02-01 02:57:00,
2013-01-31 20:58:00,37.0,14.9,30.30,North,359,0.0,0.0,40,0.00,,---,0.00,VWS V14.00,2013-02-01 02:58:00,
2013-01-31 20:59:00,36.9,14.9,30.30,North,359,0.0,0.0,40,0.00,,---,0.00,VWS V14.00,2013-02-01 02:59:00,
2013-01-31 21:02:00,36.8,14.8,30.30,North,359,0.0,0.0,40,0.00,,---,0.00,VWS V14.00,2013-02-01 03:02:00,
2013-01-31 21:04:00,36.8,14.8,30.30,North,359,0.0,0.0,40,0.00,,---,0.00,VWS V14.00,2013-02-01 03:04:00,
2013-01-31 21:05:00,36.8,14.8,30.30,North,359,0.0,0.0,40,0.00,,---,0.00,VWS V14.00,2013-02-01 03:05:00,